Tracking 19800 objects as of 24-Jul-2019
HD Live streaming from Space Station
objects crossing your sky now

FENGYUN 1C DEB

Track FENGYUN 1C DEB now!
10-day predictions


NORAD ID: 37067
Int'l Code: 1999-025EFB
Perigee: 827.2 km
Apogee: 1,143.4 km
Inclination: 99.4 °
Period: 104.7 minutes
Semi major axis: 7356 km
RCS: 0.001 m2 (small)
Launch date: May 10, 1999
Source: People's Republic of China (PRC)
Launch site: Taiyaun Space Center, China (TSC)

Note: This is SATELLITE DEBRIS
aabbcc
Your satellite tracking list
Your tracking list is empty




NASA's NSSDC Master Catalog

Two Line Element Set (TLE):
1 37067U 99025EFB 19197.90675993  .00000619  00000-0  57648-3 0  9992
2 37067  99.4255  80.3200 0214925 166.4697 194.2341 13.75990884539784
Source of the keplerian elements: AFSPC